Regional Weather Roundup
Issued by NWS Northern Indiana

Home | Current Version | Previous Version | Graphics & Text | Print | Product List | Glossary On
Versions: 1 2 3 4 5 6 7 8 9 10 11 12 13 14 15 16 17 18 19 20 21 22 23 24 25 26 27 28 29 30 31 32 33 34 35 36 37 38 39 40 41 42 43 44 45 46 47 48 49 50
773
ASUS43 KIWX 232110
RWRIWX

KIWX WEATHER ROUNDUP
NATIONAL WEATHER SERVICE NORTHERN INDIANA
500 PM EDT THU MAR 23 2017

NOTE: "FAIR" INDICATES FEW OR NO CLOUDS BELOW 12,000 FEET WITH NO
SIGNIFICANT WEATHER AND/OR OBSTRUCTIONS TO VISIBILITY.

* THESE STATIONS ARE NOT UNDER NWS QUALITY CONTROL. THEY ALSO MAY NOT
  REPORT WEATHER SUCH AS PRECIPITATION OR FOG.

INZ001>027-232200-
NORTHERN INDIANA

CITY           SKY/WX    TMP DP  RH WIND       PRES   REMARKS
GARY*          CLOUDY    50  21  32 S16       30.21F
VALPARAISO     CLOUDY    48  25  40 SE13G21   30.21F
MICHIGAN CITY* CLOUDY    45  21  39 SE10      30.22F
LAPORTE*       CLOUDY    46  23  40 SE17      30.23F
KNOX*          SUNNY     46   0  14 SE18      30.23F
SOUTH BEND     CLOUDY    45  21  38 SE15      30.24F
ELKHART*       SUNNY     45  18  33 SE14      30.25F
GOSHEN         CLOUDY    47  20  34 SE17      30.26F
MONTICELLO*    CLOUDY    50  25  37 S8        30.22F
LOGANSPORT*    PTSUNNY   50  28  43 SE14      30.25F
ROCHESTER*     SUNNY     50  23  34 E10       30.25F
WARSAW*        CLOUDY    45  23  42 SE10      30.26F
ANGOLA*        SUNNY     45  21  39 SE14      30.28F
FORT WAYNE     CLOUDY    47  22  37 SE15      30.28F
HUNTINGTON*    MOSUNNY   46  22  39 SE9       30.27F
PERU/GRISSOM   CLOUDY    52  27  38 SE13G18   30.23F
MARION*        PTSUNNY   50  26  38 SE15      30.26F

$$
INZ028>050-232200-
CENTRAL INDIANA

CITY           SKY/WX    TMP DP  RH WIND       PRES   REMARKS
LAFAYETTE      CLOUDY    51  24  34 SE8       30.21F
KOKOMO*        MOSUNNY   51  28  41 SE14      30.25F
MUNCIE*        SUNNY     53  21  28 S9G17     30.25F
INDIANAPOLIS   CLOUDY    54  24  31 SE10      30.23F

$$
MIZ043>046-050>051-056>058-064>065-071>073-077>080-232200-
SOUTHWEST LOWER MICHIGAN

CITY           SKY/WX    TMP DP  RH WIND       PRES   REMARKS
BATTLE CREEK   MOSUNNY   46  13  26 S15G24    30.27F
BENTON HARBOR  CLOUDY    45  17  32 SE15G23   30.23F
COLDWATER*     CLOUDY    46  15  28 SE8G20    30.28F
HILLSDALE*     MOSUNNY   45  14  29 SE12G20   30.28F
HOLLAND        CLOUDY    48  11  22 SE16      30.24F
GRAND RAPIDS   CLOUDY    47  10  22 S15       30.25F
KALAMAZOO      PTSUNNY   47  13  25 SE16G22   30.26F
STURGIS*       MOSUNNY   46  21  37 SE14      30.26F
THREE RIVERS*  PTSUNNY   44  18  34 S14       30.27F

$$
OHZ001>008-015>018-024>025-232200-
NORTHWEST OHIO

CITY           SKY/WX    TMP DP  RH WIND       PRES   REMARKS
WAUSEON*       PTSUNNY   48  12  23 S13       30.30F
DEFIANCE       CLOUDY    47  14  26 SE7       30.30F
FINDLAY        SUNNY     51  11  20 SE13      30.30F
TOLEDO EXPRESS SUNNY     48   9  20 S9G17     30.31F
TOLEDO METCALF SUNNY     45  26  47 E12       30.33F
LIMA           SUNNY     51  15  23 SE15      30.29F

$$
AND FOR LAKE MICHIGAN COASTAL AND OPEN LAKE BUOY OBSERVATIONS

STATION/POSITION TEMP    WIND        PRES    VSBY  WAVE
                 AIR SEA DIR/SP/G                  HT/PER
                 (F)     (DEG/KT/KT) (MB)    (MI)  (FT/S)
CALUMET HARBOR    47     160/ 14/ 19 1022.0F
MICHIGAN CITY     44     130/ 15/ 19   N/A
BURNS HARBOR      46     150/ 10/ 16 1023.4F

$$
&&




USA.gov is the U.S. government's official web portal to all federal, state and local government web resources and services.